Cedar, IA

1:13 PM CST on February 25, 2017 (GMT -0600)
Oskaloosa Municipal

Weather History for KOOA - September, 2012

Change the Weather History Date:

Sunday, September 16, 2012

  Actual Average (KOTM) Record (KOTM)
Temperature  
Mean Temperature 58 °F -  
Max Temperature 77 °F 72 °F 94 °F (1931)
Min Temperature 39 °F 53 °F 32 °F (1937)
Degree Days  
Heating Degree Days 8    
Growing Degree Days 8 (Base 50)    
Moisture  
Dew Point 49 °F    
Average Humidity 74    
Maximum Humidity 92    
Minimum Humidity 48    
Precipitation  
Precipitation 0.00 in - - ()
Sea Level Pressure  
Sea Level Pressure 30.05 in    
Wind  
Wind Speed 5 mph (SSW)    
Max Wind Speed 10 mph    
Max Gust Speed -    
Visibility 10 miles    
Events      
Averages and records for this station are not official NWS values.
T = Trace of Precipitation, MM = Missing Value Source: NWS Daily Summary

Daily Weather History Graph

Daily Weather History Graph

Search for Another Location

Airport or City:

Trip Planner

Search our weather history database for the weather conditions in past years. The results will help you decide how hot, cold, wet, or windy it might be!

Date:

Astronomy

Sep. 16, 2012 Rise Set
Actual Time 6:51 AM CDT 7:16 PM CDT
Civil Twilight 6:24 AM CDT 7:44 PM CDT
Nautical Twilight 5:51 AM CDT 8:16 PM CDT
Astronomical Twilight 5:18 AM CDT 8:49 PM CDT
Moon 7:32 AM CDT (9/16) 7:20 PM CDT (9/16)
Length of Visible Light 13h 19m
Length of Day
12h 24m
New Moon, 0% of the Moon is Illuminated
Sep 16
New Moon
Sep 22
First Quarter
Sep 29
Full
Oct 8
Last Quarter
Oct 15
New

Hourly Weather History & Observations

Time (CDT) Temp. Windchill Dew Point Humidity Pressure Visibility Wind Dir Wind Speed Gust Speed Precip Events Conditions
12:15 AM 50.7 °F - 44.6 °F 80% 30.14 in 10.0 mi South 4.6 mph - N/A   Clear
12:35 AM 49.6 °F - 44.1 °F 81% 30.13 in 10.0 mi South 5.8 mph - N/A   Clear
12:55 AM 45.5 °F 43.2 °F 42.1 °F 88% 30.13 in 10.0 mi South 4.6 mph - N/A   Clear
1:15 AM 45.3 °F 43.0 °F 41.7 °F 87% 30.12 in 10.0 mi South 4.6 mph - N/A   Clear
1:35 AM 44.6 °F 43.1 °F 41.4 °F 88% 30.12 in 10.0 mi SSW 3.5 mph - N/A   Clear
1:55 AM 45.7 °F 43.4 °F 42.3 °F 88% 30.12 in 10.0 mi South 4.6 mph - N/A   Clear
2:15 AM 43.9 °F 41.3 °F 40.6 °F 88% 30.12 in 10.0 mi South 4.6 mph - N/A   Clear
2:35 AM 42.6 °F 39.9 °F 39.2 °F 88% 30.11 in 10.0 mi South 4.6 mph - N/A   Clear
2:55 AM 41.9 °F 40.0 °F 39.2 °F 90% 30.11 in 10.0 mi SSW 3.5 mph - N/A   Clear
3:15 AM 41.5 °F 39.6 °F 38.8 °F 90% 30.10 in 10.0 mi SSW 3.5 mph - N/A   Clear
3:35 AM 41.0 °F - 38.3 °F 90% 30.10 in 10.0 mi Calm Calm - N/A   Clear
3:55 AM 41.0 °F - 38.3 °F 90% 30.10 in 10.0 mi Calm Calm - N/A   Clear
4:15 AM 40.1 °F 38.0 °F 37.4 °F 90% 30.10 in 10.0 mi WSW 3.5 mph - N/A   Clear
4:35 AM 39.6 °F 37.4 °F 36.9 °F 90% 30.10 in 10.0 mi SSW 3.5 mph - N/A   Clear
4:55 AM 41.4 °F 38.4 °F 39.0 °F 91% 30.10 in 10.0 mi South 4.6 mph - N/A   Clear
5:15 AM 42.3 °F 38.6 °F 39.4 °F 90% 30.10 in 10.0 mi South 5.8 mph - N/A   Clear
5:35 AM 43.0 °F 39.5 °F 40.3 °F 90% 30.10 in 10.0 mi South 5.8 mph - N/A   Clear
5:55 AM 40.6 °F 38.6 °F 37.8 °F 89% 30.10 in 10.0 mi SSE 3.5 mph - N/A   Clear
6:15 AM 39.7 °F - 37.0 °F 90% 30.11 in 10.0 mi Calm Calm - N/A   Clear
6:35 AM 41.0 °F 39.0 °F 38.8 °F 92% 30.10 in 10.0 mi South 3.5 mph - N/A   Clear
6:55 AM 42.3 °F 40.5 °F 39.9 °F 91% 30.10 in 10.0 mi South 3.5 mph - N/A   Clear
7:15 AM 43.9 °F 41.3 °F 41.4 °F 91% 30.10 in 10.0 mi South 4.6 mph - N/A   Clear
7:35 AM 45.5 °F 44.2 °F 42.8 °F 90% 30.10 in 10.0 mi South 3.5 mph - N/A   Clear
7:55 AM 46.0 °F 43.9 °F 43.3 °F 90% 30.10 in 10.0 mi South 4.6 mph - N/A   Clear
8:15 AM 49.1 °F - 46.6 °F 91% 30.10 in 10.0 mi South 3.5 mph - N/A   Clear
8:35 AM 52.3 °F - 48.6 °F 87% 30.10 in 10.0 mi Calm Calm - N/A   Clear
8:55 AM 55.4 °F - 50.2 °F 83% 30.10 in 10.0 mi SSW 4.6 mph - N/A   Scattered Clouds
9:15 AM 58.5 °F - 51.3 °F 77% 30.10 in 10.0 mi SSW 5.8 mph - N/A   Clear
9:35 AM 62.1 °F - 51.4 °F 68% 30.10 in 10.0 mi SW 6.9 mph - N/A   Clear
9:55 AM 64.0 °F - 50.2 °F 61% 30.10 in 10.0 mi SW 8.1 mph - N/A   Clear
10:15 AM 65.1 °F - 50.2 °F 58% 30.10 in 10.0 mi South 8.1 mph - N/A   Scattered Clouds
10:35 AM 66.0 °F - 51.3 °F 59% 30.10 in 10.0 mi SSW 5.8 mph - N/A   Mostly Cloudy
10:55 AM 66.6 °F - 52.0 °F 59% 30.10 in 10.0 mi SSW 5.8 mph - N/A   Mostly Cloudy
11:15 AM 67.8 °F - 52.7 °F 58% 30.09 in 10.0 mi SW 5.8 mph - N/A   Scattered Clouds
11:35 AM 68.9 °F - 53.8 °F 58% 30.09 in 10.0 mi SW 9.2 mph - N/A   Clear
11:55 AM 69.4 °F - 54.7 °F 59% 30.08 in 10.0 mi SW 5.8 mph - N/A   Clear
12:15 PM 70.2 °F - 54.9 °F 58% 30.08 in 10.0 mi SSW 3.5 mph - N/A   Clear
12:35 PM 71.1 °F - 54.7 °F 56% 30.07 in 10.0 mi SW 5.8 mph - N/A   Clear
12:55 PM 71.2 °F - 54.7 °F 56% 30.06 in 10.0 mi SW 5.8 mph - N/A   Clear
1:15 PM 72.3 °F - 55.0 °F 54% 30.05 in 10.0 mi SSW 4.6 mph - N/A   Clear
1:35 PM 73.4 °F - 54.7 °F 52% 30.05 in 10.0 mi SW 8.1 mph - N/A   Clear
1:55 PM 74.1 °F - 55.2 °F 52% 30.04 in 10.0 mi South 6.9 mph - N/A   Clear
2:15 PM 74.1 °F - 55.4 °F 52% 30.03 in 10.0 mi SSW 9.2 mph - N/A   Clear
2:35 PM 75.6 °F - 55.2 °F 49% 30.02 in 10.0 mi SW 6.9 mph - N/A   Clear
2:55 PM 75.7 °F - 55.8 °F 50% 30.01 in 10.0 mi SSW 8.1 mph - N/A   Clear
3:15 PM 75.7 °F - 56.3 °F 51% 30.00 in 10.0 mi South 10.4 mph - N/A   Clear
3:35 PM 76.8 °F - 56.7 °F 50% 29.99 in 10.0 mi South 4.6 mph - N/A   Clear
3:55 PM 76.1 °F - 56.1 °F 50% 29.98 in 10.0 mi SW 9.2 mph - N/A   Clear
4:15 PM 75.7 °F - 55.4 °F 49% 29.98 in 10.0 mi SW 4.6 mph - N/A   Clear
4:35 PM 76.1 °F - 55.2 °F 48% 29.98 in 10.0 mi SSW 8.1 mph - N/A   Clear
4:55 PM 75.6 °F - 55.4 °F 49% 29.97 in 10.0 mi SW 8.1 mph - N/A   Clear
5:15 PM 75.2 °F - 56.1 °F 51% 29.97 in 10.0 mi SSW 8.1 mph - N/A   Clear
5:35 PM 74.5 °F - 56.3 °F 53% 29.97 in 10.0 mi SW 10.4 mph - N/A   Clear
5:55 PM 74.3 °F - 56.3 °F 53% 29.97 in 10.0 mi SSW 6.9 mph - N/A   Clear
6:15 PM 73.4 °F - 56.3 °F 55% 29.97 in 10.0 mi SSW 9.2 mph - N/A   Clear
6:35 PM 72.3 °F - 56.8 °F 58% 29.97 in 10.0 mi SSW 5.8 mph - N/A   Clear
6:55 PM 70.5 °F - 57.2 °F 63% 29.96 in 10.0 mi South 4.6 mph - N/A   Clear
7:15 PM 68.2 °F - 57.2 °F 68% 29.96 in 10.0 mi SSW 4.6 mph - N/A   Clear
7:35 PM 65.5 °F - 56.7 °F 73% 29.96 in 10.0 mi South 4.6 mph - N/A   Clear
7:55 PM 64.0 °F - 56.5 °F 76% 29.96 in 10.0 mi SSW 5.8 mph - N/A   Clear
8:15 PM 62.6 °F - 56.1 °F 79% 29.97 in 10.0 mi SSW 4.6 mph - N/A   Clear
8:35 PM 61.0 °F - 55.6 °F 82% 29.97 in 10.0 mi SW 3.5 mph - N/A   Clear
8:55 PM 57.7 °F - 53.8 °F 87% 29.97 in 10.0 mi WSW 3.5 mph - N/A   Clear
9:15 PM 57.4 °F - 52.9 °F 85% 29.97 in 10.0 mi SW 3.5 mph - N/A   Clear
9:35 PM 55.6 °F - 52.0 °F 88% 29.98 in 10.0 mi SW 3.5 mph - N/A   Clear
9:55 PM 56.5 °F - 53.2 °F 89% 29.97 in 10.0 mi SSW 3.5 mph - N/A   Clear
10:15 PM 55.4 °F - 51.6 °F 87% 29.98 in 10.0 mi SW 3.5 mph - N/A   Clear
10:35 PM 54.7 °F - 51.4 °F 89% 29.98 in 10.0 mi SW 3.5 mph - N/A   Clear
10:55 PM 54.0 °F - 50.9 °F 89% 29.98 in 10.0 mi Calm Calm - N/A   Clear
11:15 PM 52.7 °F - 49.6 °F 89% 29.98 in 10.0 mi Calm Calm - N/A   Clear
11:35 PM 51.8 °F - 48.9 °F 90% 29.98 in 10.0 mi West 3.5 mph - N/A   Clear
11:55 PM 51.4 °F - 48.6 °F 90% 29.98 in 7.0 mi WSW 3.5 mph - N/A   Clear